Hallock, MN

9:17 AM CST on December 07, 2016 (GMT -0600)
Hallock Municipal

Weather History for KHCO - November, 2012

Change the Weather History Date:

Thursday, November 29, 2012

  Actual Average Record
Temperature  
Mean Temperature 14 °F -  
Max Temperature 17 °F 20 °F 44 °F (1962)
Min Temperature 10 °F 5 °F -29 °F (1985)
Degree Days  
Heating Degree Days 52    
Moisture  
Dew Point 7 °F    
Average Humidity 74    
Maximum Humidity 85    
Minimum Humidity 68    
Precipitation  
Precipitation 0.00 in - - ()
Sea Level Pressure  
Sea Level Pressure 30.24 in    
Wind  
Wind Speed 12 mph (ENE)    
Max Wind Speed 17 mph    
Max Gust Speed 21 mph    
Visibility 10 miles    
Events      
Averages and records for this station are not official NWS values.
T = Trace of Precipitation, MM = Missing Value Source: NWS Daily Summary

Daily Weather History Graph

Daily Weather History Graph

Search for Another Location

Airport or City:

Trip Planner

Search our weather history database for the weather conditions in past years. The results will help you decide how hot, cold, wet, or windy it might be!

Date:

Astronomy

Nov. 29, 2012 Rise Set
Actual Time 7:57 AM CST 4:34 PM CST
Civil Twilight 7:21 AM CST 5:10 PM CST
Nautical Twilight 6:42 AM CST 5:50 PM CST
Astronomical Twilight 6:04 AM CST 6:28 PM CST
Moon 5:38 PM CST (11/29) 8:46 AM CST (11/29)
Length of Visible Light 9h 49m
Length of Day
8h 37m
Full, 99% of the Moon is Illuminated
Nov 29
Full
Dec 6
Last Quarter
Dec 13
New
Dec 19
First Quarter
Dec 28
Full

Hourly Weather History & Observations

Time (CST) Temp. Windchill Dew Point Humidity Pressure Visibility Wind Dir Wind Speed Gust Speed Precip Events Conditions
12:14 AM 12.2 °F -2.5 °F 6.8 °F 79% 30.22 in 10.0 mi North 12.7 mph - N/A   Mostly Cloudy
12:34 AM 12.2 °F -4.3 °F 6.8 °F 79% 30.21 in 10.0 mi NNE 16.1 mph 20.7 mph N/A   Overcast
12:54 AM 10.4 °F -6.6 °F 6.8 °F 85% 30.21 in 10.0 mi NNE 16.1 mph - N/A   Overcast
1:14 AM 10.4 °F -5.4 °F 3.2 °F 73% 30.22 in 10.0 mi North 13.8 mph - N/A   Overcast
1:34 AM 10.4 °F -7.2 °F 3.2 °F 73% 30.22 in 10.0 mi NNE 17.3 mph - N/A   Overcast
1:54 AM 10.4 °F -6.0 °F 3.2 °F 73% 30.22 in 10.0 mi NNE 15.0 mph - N/A   Overcast
2:14 AM 10.4 °F -5.4 °F 3.2 °F 73% 30.22 in 10.0 mi NNE 13.8 mph - N/A   Overcast
2:34 AM 10.4 °F -5.4 °F 3.2 °F 73% 30.23 in 10.0 mi NNE 13.8 mph - N/A   Overcast
2:54 AM 10.4 °F -4.1 °F 5.0 °F 79% 30.23 in 10.0 mi NNE 11.5 mph - N/A   Overcast
3:33 AM 10.4 °F -3.3 °F 3.2 °F 73% 30.22 in 10.0 mi NE 10.4 mph - N/A   Overcast
3:54 AM 10.4 °F -3.3 °F 3.2 °F 73% 30.23 in 10.0 mi NNE 10.4 mph - N/A   Overcast
4:14 AM 10.4 °F -3.3 °F 3.2 °F 73% 30.22 in 10.0 mi NNE 10.4 mph - N/A   Overcast
4:33 AM 10.4 °F -4.1 °F 3.2 °F 73% 30.23 in 10.0 mi NNE 11.5 mph - N/A   Overcast
4:54 AM 10.4 °F -4.8 °F 3.2 °F 73% 30.24 in 10.0 mi NE 12.7 mph - N/A   Overcast
5:14 AM 10.4 °F -3.3 °F 3.2 °F 73% 30.25 in 10.0 mi NE 10.4 mph - N/A   Overcast
5:33 AM 10.4 °F -3.3 °F 3.2 °F 73% 30.23 in 10.0 mi NE 10.4 mph - N/A   Overcast
5:54 AM 10.4 °F -3.3 °F 3.2 °F 73% 30.23 in 10.0 mi NE 10.4 mph - N/A   Overcast
6:14 AM 10.4 °F -3.3 °F 5.0 °F 79% 30.25 in 10.0 mi NE 10.4 mph - N/A   Overcast
6:34 AM 10.4 °F -3.3 °F 5.0 °F 79% 30.25 in 10.0 mi NE 10.4 mph - N/A   Overcast
6:54 AM 10.4 °F -2.4 °F 5.0 °F 79% 30.24 in 10.0 mi NE 9.2 mph - N/A   Overcast
7:14 AM 10.4 °F -2.4 °F 5.0 °F 79% 30.24 in 10.0 mi NE 9.2 mph - N/A   Overcast
7:34 AM 10.4 °F -3.3 °F 6.8 °F 85% 30.24 in 10.0 mi NE 10.4 mph - N/A   Overcast
7:54 AM 10.4 °F -3.3 °F 6.8 °F 85% 30.24 in 10.0 mi NE 10.4 mph - N/A   Overcast
8:14 AM 10.4 °F -2.4 °F 6.8 °F 85% 30.26 in 10.0 mi NNE 9.2 mph - N/A   Overcast
8:34 AM 10.4 °F -2.4 °F 6.8 °F 85% 30.27 in 10.0 mi NNE 9.2 mph - N/A   Overcast
8:54 AM 10.4 °F -1.5 °F 6.8 °F 85% 30.27 in 10.0 mi ENE 8.1 mph - N/A   Overcast
9:14 AM 12.2 °F 0.7 °F 6.8 °F 79% 30.28 in 10.0 mi NE 8.1 mph - N/A   Overcast
9:34 AM 12.2 °F -0.2 °F 6.8 °F 79% 30.27 in 10.0 mi ENE 9.2 mph - N/A   Overcast
9:54 AM 12.2 °F -0.2 °F 6.8 °F 79% 30.27 in 10.0 mi ENE 9.2 mph - N/A   Overcast
10:14 AM 12.2 °F 0.7 °F 6.8 °F 79% 30.29 in 10.0 mi ENE 8.1 mph - N/A   Overcast
10:34 AM 12.2 °F -0.2 °F 6.8 °F 79% 30.28 in 10.0 mi ENE 9.2 mph - N/A   Overcast
10:54 AM 12.2 °F 0.7 °F 8.6 °F 85% 30.28 in 10.0 mi ENE 8.1 mph - N/A   Overcast
11:14 AM 14.0 °F 1.2 °F 8.6 °F 79% 30.28 in 10.0 mi ENE 10.4 mph - N/A   Overcast
11:33 AM 14.0 °F 2.0 °F 8.6 °F 79% 30.27 in 10.0 mi ENE 9.2 mph - N/A   Overcast
11:54 AM 15.8 °F 2.7 °F 8.6 °F 73% 30.25 in 10.0 mi ENE 11.5 mph - N/A   Overcast
12:14 PM 15.8 °F 3.4 °F 8.6 °F 73% 30.26 in 10.0 mi ENE 10.4 mph - N/A   Overcast
12:35 PM 15.8 °F 2.7 °F 8.6 °F 73% 30.25 in 10.0 mi ENE 11.5 mph - N/A   Overcast
12:54 PM 15.8 °F 4.2 °F 10.4 °F 79% 30.25 in 10.0 mi ENE 9.2 mph - N/A   Overcast
1:14 PM 17.6 °F 5.0 °F 10.4 °F 73% 30.25 in 10.0 mi East 11.5 mph - N/A   Mostly Cloudy
1:35 PM 17.6 °F 5.0 °F 10.4 °F 73% 30.25 in 10.0 mi ENE 11.5 mph - N/A   Clear
1:54 PM 17.6 °F 5.7 °F 10.4 °F 73% 30.24 in 10.0 mi NE 10.4 mph - N/A   Clear
2:14 PM 17.6 °F 4.3 °F 10.4 °F 73% 30.23 in 10.0 mi ENE 12.7 mph 16.1 mph N/A   Clear
2:34 PM 17.6 °F 5.0 °F 10.4 °F 73% 30.23 in 10.0 mi ENE 11.5 mph - N/A   Clear
2:54 PM 17.6 °F 5.0 °F 10.4 °F 73% 30.23 in 10.0 mi ENE 11.5 mph - N/A   Clear
3:14 PM 17.6 °F 4.3 °F 8.6 °F 68% 30.22 in 10.0 mi East 12.7 mph - N/A   Clear
3:35 PM 17.6 °F 6.4 °F 10.4 °F 73% 30.23 in 10.0 mi ENE 9.2 mph - N/A   Clear
3:54 PM 17.6 °F 3.7 °F 8.6 °F 68% 30.23 in 10.0 mi ENE 13.8 mph - N/A   Clear
4:14 PM 17.6 °F 5.0 °F 8.6 °F 68% 30.23 in 10.0 mi ENE 11.5 mph - N/A   Scattered Clouds
4:35 PM 17.6 °F 4.3 °F 8.6 °F 68% 30.23 in 10.0 mi ENE 12.7 mph - N/A   Scattered Clouds
4:54 PM 17.6 °F 5.7 °F 8.6 °F 68% 30.22 in 10.0 mi East 10.4 mph - N/A   Scattered Clouds
5:14 PM 17.6 °F 5.0 °F 8.6 °F 68% 30.23 in 10.0 mi ENE 11.5 mph - N/A   Mostly Cloudy
5:35 PM 17.6 °F 5.7 °F 10.4 °F 73% 30.22 in 10.0 mi ENE 10.4 mph - N/A   Scattered Clouds
5:54 PM 17.6 °F 5.0 °F 8.6 °F 68% 30.22 in 10.0 mi ENE 11.5 mph - N/A   Scattered Clouds
6:14 PM 17.6 °F 5.0 °F 8.6 °F 68% 30.22 in 10.0 mi ENE 11.5 mph - N/A   Scattered Clouds
6:34 PM 17.6 °F 4.3 °F 8.6 °F 68% 30.22 in 10.0 mi ENE 12.7 mph - N/A   Mostly Cloudy
6:54 PM 17.6 °F 2.7 °F 8.6 °F 68% 30.22 in 10.0 mi ENE 16.1 mph 19.6 mph N/A   Mostly Cloudy
7:14 PM 17.6 °F 3.2 °F 8.6 °F 68% 30.22 in 10.0 mi East 15.0 mph 20.7 mph N/A   Scattered Clouds
7:34 PM 17.6 °F 4.3 °F 8.6 °F 68% 30.21 in 10.0 mi ENE 12.7 mph 17.3 mph N/A   Mostly Cloudy
7:54 PM 17.6 °F 3.2 °F 8.6 °F 68% 30.22 in 10.0 mi East 15.0 mph - N/A   Overcast
8:14 PM 17.6 °F 3.2 °F 8.6 °F 68% 30.22 in 10.0 mi East 15.0 mph 19.6 mph N/A   Overcast
8:34 PM 17.6 °F 3.7 °F 8.6 °F 68% 30.23 in 10.0 mi East 13.8 mph - N/A   Overcast
8:54 PM 17.6 °F 3.7 °F 10.4 °F 73% 30.23 in 10.0 mi East 13.8 mph - N/A   Overcast
9:14 PM 17.6 °F 5.0 °F 10.4 °F 73% 30.22 in 10.0 mi East 11.5 mph - N/A   Overcast
9:34 PM 17.6 °F 3.7 °F 10.4 °F 73% 30.22 in 10.0 mi East 13.8 mph - N/A   Overcast
9:54 PM 17.6 °F 3.2 °F 8.6 °F 68% 30.22 in 10.0 mi East 15.0 mph - N/A   Overcast
10:14 PM 17.6 °F 3.2 °F 10.4 °F 73% 30.22 in 10.0 mi East 15.0 mph - N/A   Mostly Cloudy
10:34 PM 17.6 °F 3.7 °F 10.4 °F 73% 30.23 in 10.0 mi East 13.8 mph - N/A   Overcast
10:54 PM 17.6 °F 5.7 °F 10.4 °F 73% 30.23 in 10.0 mi East 10.4 mph - N/A   Overcast
11:14 PM 17.6 °F 6.4 °F 10.4 °F 73% 30.23 in 10.0 mi East 9.2 mph - N/A   Overcast
11:34 PM 17.6 °F 6.4 °F 8.6 °F 68% 30.23 in 10.0 mi East 9.2 mph - N/A   Overcast
11:54 PM 17.6 °F 5.0 °F 8.6 °F 68% 30.21 in 10.0 mi East 11.5 mph - N/A   Overcast